SCP
0 0 0 0 0 0 0 0 0 0 0 0 0 0 0 0 0 0 0 0 0 0 0 0 0 0 0 0 0 0 0 0 0 0 0 0 0 0
0 0 0 0 0 0 0 0 0 0 0 0 0 0 0 0 0 0 0 0 0 0 0 0 0 0 0 0 0 0 0 0 0 0 0 0 0 0
0 0 0 0 0 0 0 0 0 0 0 0 0 0 0 0 0 1 1 0 0 0 0 0 0 0 0 0 0 0 0 0 0 0 0 0 0 0
0 0 0 0 0 0 0 0 0 0 0 0 0 0 0 0 0 1 1 1 0 0 0 0 0 0 0 0 0 0 0 0 0 0 0 0 0 0
0 0 0 0 0 0 0 0 0 0 0 0 0 0 0 0 0 1 1 1 0 0 0 0 0 0 0 0 0 0 0 0 0 0 0 0 0 0
0 0 0 0 0 0 0 0 0 0 0 0 0 0 0 0 0 0 1 1 1 0 0 0 0 0 0 0 0 0 0 0 0 0 0 0 0 0
0 0 0 0 0 0 0 0 0 0 0 0 0 0 0 0 0 0 1 1 1 1 0 0 0 0 0 0 0 0 0 0 0 0 0 0 0 0
0 0 0 0 0 0 0 0 0 0 0 0 0 0 0 0 0 0 1 1 1 1 1 1 0 0 0 0 0 0 0 0 0 0 0 0 0 0
0 0 0 0 0 0 0 0 0 0 0 0 0 0 0 0 0 0 1 1 1 1 1 1 0 0 0 0 0 0 0 0 0 0 0 0 0 0
0 0 0 0 0 0 0 0 0 0 0 0 0 0 0 0 0 0 0 1 1 1 1 1 0 0 0 0 0 0 0 0 0 0 0 0 0 0
0 0 0 0 0 0 0 0 0 0 0 0 0 0 0 0 0 0 0 0 1 1 1 0 0 0 0 0 0 0 0 0 0 0 0 0 0 0
0 0 0 0 0 0 0 0 0 0 0 0 0 0 0 0 0 0 0 0 0 0 0 0 0 0 0 0 0 0 0 0 0 0 0 0 0 0
0 0 0 0 0 0 0 0 0 0 0 0 0 0 0 0 0 0 0 0 0 1 0 0 0 0 0 0 0 0 0 0 0 0 0 0 0 0
0 0 0 0 0 0 0 0 0 0 0 0 0 0 0 0 0 0 0 0 0 1 1 0 0 0 0 0 0 0 0 0 0 0 0 0 0 0
0 0 0 0 0 0 0 0 0 0 0 0 0 0 0 0 0 0 0 0 0 1 1 1 0 0 0 0 0 0 0 0 0 0 0 0 0 0
0 0 0 0 0 0 0 0 0 0 0 0 0 0 0 0 0 0 0 0 0 0 0 1 0 0 0 0 0 0 0 0 0 0 0 0 0 0
0 0 0 0 0 0 0 0 0 0 0 0 0 0 0 0 0 0 0 0 1 0 0 0 0 0 0 0 0 0 0 0 0 0 0 0 0 0
0 0 0 0 0 0 0 0 0 0 0 0 0 0 0 0 0 0 0 1 1 0 0 0 0 0 0 0 0 0 0 0 0 0 0 0 0 0
0 0 0 0 0 0 0 0 0 0 0 0 0 0 0 0 0 0 0 0 0 1 0 0 0 0 0 0 0 0 0 0 0 0 0 0 0 0
0 0 0 0 0 0 0 0 0 0 0 0 0 0 0 0 0 0 0 0 0 0 0 0 0 0 0 0 0 0 0 0 0 0 0 0 0 0
0 0 0 0 0 0 0 0 0 0 0 0 0 0 0 0 0 0 0 0 0 0 0 0 0 0 0 0 0 0 0 0 0 0 0 0 0 0
0 0 0 0 0 0 0 0 0 0 0 0 0 0 0 0 0 0 0 0 0 0 0 0 0 0 0 0 0 0 0 0 0 0 0 0 0 0
0 0 0 0 0 0 0 0 0 0 0 0 0 0 0 0 0 0 0 0 0 0 0 0 0 0 0 0 0 0 0 0 0 0 0 0 0 0
Wind_Speed
9 9 9 8 8 8 8 9 9 10 8 4 3 1 3 3 1 4 6 9 12 13 13 14 16 18 19 19 19 19 20 20 20 20 20 21 21 22
7 8 8 9 8 8 9 9 9 10 10 7 4 3 5 6 2 4 5 6 10 11 12 13 14 16 18 19 20 20 20 20 19 19 20 19 19 19
9 9 9 9 9 9 9 9 10 10 11 9 6 4 4 6 5 4 4 4 6 10 10 11 12 13 14 17 19 19 20 19 19 19 19 18 17 17
11 10 10 9 10 10 9 10 10 9 11 12 9 7 6 5 5 5 3 3 4 7 9 9 9 10 12 14 16 17 18 18 18 17 17 17 17 16
11 11 11 11 11 10 10 10 10 10 10 11 11 8 6 5 5 4 3 2 2 5 7 7 7 8 9 12 14 15 16 16 16 16 16 16 15 15
12 12 12 12 12 11 10 11 11 11 10 11 11 9 8 7 6 5 4 4 3 3 4 4 6 6 7 9 11 13 15 15 15 15 14 14 14 14
12 12 13 12 11 10 10 10 10 10 10 10 10 10 9 7 7 6 6 4 4 4 4 5 6 5 5 7 9 11 12 13 14 14 14 13 13 12
13 12 12 13 14 15 16 16 15 13 12 11 10 10 9 9 7 6 6 6 5 5 5 4 4 5 4 4 6 9 11 12 13 13 13 13 12 12
13 12 12 11 11 13 16 20 20 20 18 14 14 12 10 9 9 9 8 7 6 6 6 5 4 4 3 4 6 7 9 10 11 12 12 12 12 12
14 14 13 13 12 11 13 13 14 15 17 16 15 14 13 11 9 10 9 8 5 5 6 4 4 3 3 4 5 5 8 9 11 12 12 12 13 12
14 14 13 13 10 8 12 14 14 13 13 14 13 13 11 10 8 9 9 8 6 5 5 4 5 4 3 3 3 5 6 9 11 12 13 14 15 14
11 12 12 14 10 7 12 13 15 14 13 13 14 15 16 16 14 13 12 10 7 6 6 6 6 6 4 2 2 3 5 6 10 12 15 16 16 11
10 9 8 8 11 11 12 13 13 12 12 13 13 13 14 14 15 15 14 12 10 7 8 8 6 6 5 5 2 2 3 4 5 7 11 13 11 9
10 10 7 3 7 10 12 12 12 11 12 11 12 12 12 13 13 14 15 14 11 9 10 11 7 8 7 7 5 3 3 4 5 6 6 7 7 7
10 10 10 8 9 11 16 15 13 12 12 12 13 13 12 12 11 11 13 13 13 11 11 12 8 8 7 7 8 7 5 3 4 6 7 6 6 7
11 10 13 15 14 14 11 12 12 12 12 12 12 12 11 11 12 11 12 11 11 9 10 12 10 10 7 7 9 10 8 7 6 6 6 6 6 6
7 8 9 9 9 10 10 9 10 11 12 12 12 12 11 12 12 11 11 11 12 11 9 7 6 5 4 6 9 10 10 8 8 8 7 6 6 7
7 10 10 9 9 9 9 9 9 10 11 11 12 12 12 12 12 11 11 12 12 11 10 8 7 5 3 3 1 10 9 8 10 10 8 8 8 7
9 11 11 10 9 9 8 8 8 9 9 10 11 12 12 12 11 11 12 12 12 12 11 10 10 9 9 7 2 3 9 10 10 9 8 7 8 9
11 11 10 10 9 8 7 7 7 8 8 9 10 11 12 11 11 12 12 14 13 12 11 11 12 12 11 9 7 5 7 10 11 11 9 5 6 9
9 9 9 9 8 8 7 7 7 7 8 8 9 11 11 11 12 12 12 14 13 12 13 12 11 10 6 7 8 7 8 5 4 8 11 9 9 10
8 8 8 8 7 7 6 6 6 7 8 8 8 9 10 10 12 14 13 13 12 12 12 10 11 10 8 10 10 10 9 8 4 6 6 3 7 10
8 8 8 8 7 6 6 7 8 7 7 7 7 8 9 9 10 11 12 12 12 13 12 11 10 9 8 8 9 10 13 12 9 8 5 5 6 11
Wind_Direction
271 260 260 271 266 268 269 270 276 280 274 255 248 270 317 303 297 247 234 209 209 211 215 216 216 212 208 206 207 208 209 209 210 212 214 213 213 215
267 280 280 274 274 270 268 266 265 270 276 276 257 275 320 304 282 273 247 203 205 206 212 215 214 211 208 205 205 205 205 205 207 209 209 208 209 212
264 260 259 270 275 275 266 262 261 261 265 268 261 250 268 286 292 281 253 223 194 196 204 210 213 212 210 206 202 201 201 203 205 206 205 205 206 209
260 261 260 257 254 263 269 268 266 269 269 271 269 258 245 257 274 278 263 230 201 179 191 199 206 208 209 207 201 198 198 199 201 201 200 202 204 207
262 259 258 257 257 258 260 263 263 258 256 262 262 258 250 242 247 249 240 225 198 168 177 181 192 201 206 204 200 196 195 195 196 197 198 200 202 204
263 260 257 254 252 255 256 256 261 266 262 259 261 255 245 232 231 232 221 200 188 166 151 147 156 174 190 194 195 193 191 191 192 193 195 196 198 200
265 259 256 254 258 260 265 262 256 252 255 251 252 251 246 235 230 223 219 196 183 179 166 162 160 165 170 178 186 187 185 184 185 186 188 188 189 190
269 265 259 244 237 234 247 261 270 268 264 264 258 253 252 250 243 236 220 203 197 185 177 167 171 161 159 162 157 172 181 179 179 180 181 180 180 179
269 266 263 257 238 240 230 231 242 249 256 267 270 270 265 254 257 245 230 224 214 178 175 163 163 145 122 101 127 162 178 179 175 173 173 172 171 169
262 260 261 265 260 257 258 247 240 235 230 234 248 260 266 277 272 263 258 237 226 192 177 161 156 137 123 111 117 155 173 174 172 168 165 162 157 153
262 260 260 262 257 243 257 260 257 251 240 237 246 256 273 287 289 274 251 228 215 194 188 166 144 126 122 114 99 128 157 167 165 160 154 148 141 135
265 262 251 248 261 238 252 255 254 251 252 238 227 237 246 248 242 248 255 238 218 194 181 170 151 147 136 113 108 124 131 140 148 148 147 145 148 143
273 271 268 213 223 231 242 254 257 264 255 249 246 238 231 231 231 225 229 241 228 207 177 175 163 164 150 138 124 96 119 133 127 131 142 148 157 155
272 273 278 224 229 236 239 248 247 251 252 248 243 240 236 229 223 224 220 224 234 222 185 180 172 172 159 150 144 131 109 120 129 130 129 120 102 106
268 282 290 279 262 249 239 236 233 234 238 239 239 238 237 235 231 221 222 221 226 220 197 191 183 175 176 164 151 150 142 131 137 139 144 151 150 148
253 260 245 244 246 257 252 225 226 231 230 234 237 238 238 233 227 224 216 207 207 205 199 193 190 180 185 173 158 159 157 151 151 151 150 154 165 175
301 278 269 260 247 240 237 235 229 225 226 232 234 235 233 231 226 220 218 207 203 193 181 179 177 165 175 169 165 161 156 153 155 154 154 154 169 177
265 263 264 262 259 255 249 239 231 228 227 227 228 229 228 225 223 218 212 209 204 193 180 168 152 130 102 37 158 161 158 156 155 161 166 161 167 178
242 254 259 259 258 256 253 249 241 232 226 224 224 224 222 222 220 216 211 206 204 194 179 171 172 170 170 169 169 192 162 155 156 165 178 177 170 166
239 252 257 256 253 250 246 246 244 236 226 222 222 222 220 218 217 214 210 205 200 191 180 178 183 186 186 171 155 166 173 161 164 166 171 168 122 102
257 258 262 260 251 246 242 238 237 234 230 224 222 220 219 216 216 214 208 201 199 191 184 185 185 172 150 138 139 147 160 156 161 170 164 159 156 165
266 266 267 266 258 249 240 232 228 227 229 224 221 219 217 217 216 213 206 197 196 194 188 173 162 162 167 174 164 152 150 150 103 90 91 88 180 183
265 265 268 268 259 245 241 231 224 222 223 225 220 216 214 213 213 211 207 199 195 188 178 166 165 169 175 174 159 151 155 159 158 160 150 50 66 95